Location: Carnetin
(48.9010°N, 2.7059°E)
Time: 03:38:45
(UTC+00:00)

USA 229 - Pass Details

Date: 06 June 2022
Orbit: 938 x 1274 km, 63.4° (Epoch: 24 May)

Event Time Altitude Azimuth Distance (km) Brightness Sun altitude
Rises 23:26:44 0° 310° (NW) 4,027 7.4 -18.2°
Reaches altitude 10° 23:30:16 10° 294° (WNW) 3,118 6.5 -18.3°
Maximum altitude 23:35:12 19° 252° (WSW) 2,551 5.5 -18.3°
Enters shadow 23:38:40 14° 222° (SW) 2,896 5.5 -18.3°
